| time (UTC) | temp C | wind direction | speed KPH | gust KPH | rain 1hr cm | rain 24hr cm | rain mn cm | humidity % | barometer mb |
| 20260508030654 | 31 | 135 | 0.0 | 0.0 | 0.00 | 0.00 | 0.00 | 13 | 1007.6 |
| 20260508030152 | 31 | 270 | 0.0 | 0.0 | 0.00 | 0.00 | 0.00 | 13 | 1007.6 |
| 20260508025637 | 31 | 270 | 0.0 | 1.6 | 0.00 | 0.00 | 0.00 | 12 | 1007.3 |
| 20260508025351 | 31 | 270 | 0.0 | 3.2 | 0.00 | 0.00 | 0.00 | 12 | 1007.3 |
| 20260508024602 | 31 | 315 | 0.0 | 8.0 | 0.00 | 0.00 | 0.00 | 12 | 1007.3 |
| 20260508024107 | 31 | 248 | 3.2 | 8.0 | 0.00 | 0.00 | 0.00 | 12 | 1007.3 |
| 20260508023544 | 31 | 248 | 1.6 | 4.8 | 0.00 | 0.00 | 0.00 | 12 | 1007.3 |
| 20260508023037 | 32 | 270 | 0.0 | 3.2 | 0.00 | 0.00 | 0.00 | 12 | 1006.9 |
| 20260508022502 | 32 | 225 | 1.6 | 3.2 | 0.00 | 0.00 | 0.00 | 12 | 1007.3 |
| 20260508021926 | 32 | 203 | 1.6 | 4.8 | 0.00 | 0.00 | 0.00 | 11 | 1006.9 |
| 20260508021418 | 32 | 248 | 1.6 | 8.0 | 0.00 | 0.00 | 0.00 | 12 | 1006.9 |
| 20260508020851 | 32 | 270 | 1.6 | 9.7 | 0.00 | 0.00 | 0.00 | 11 | 1006.9 |
| 20260508020353 | 32 | 158 | 3.2 | 9.7 | 0.00 | 0.00 | 0.00 | 10 | 1006.9 |
| 20260508020105 | 32 | 225 | 3.2 | 8.0 | 0.00 | 0.00 | 0.00 | 11 | 1006.9 |
| 20260508015552 | 32 | 315 | 3.2 | 8.0 | 0.00 | 0.00 | 0.00 | 10 | 1006.5 |
| 20260508014814 | 33 | 270 | 1.6 | 11.3 | 0.00 | 0.00 | 0.00 | 10 | 1006.5 |
| 20260508014254 | 33 | 270 | 3.2 | 11.3 | 0.00 | 0.00 | 0.00 | 10 | 1006.5 |
| 20260508013752 | 33 | 225 | 1.6 | 8.0 | 0.00 | 0.00 | 0.00 | 10 | 1006.2 |
| 20260508013237 | 33 | 225 | 1.6 | 8.0 | 0.00 | 0.00 | 0.00 | 10 | 1006.5 |
| 20260508012736 | 33 | 225 | 1.6 | 8.0 | 0.00 | 0.00 | 0.00 | 10 | 1006.5 |
| 20260508012228 | 33 | 203 | 3.2 | 11.3 | 0.00 | 0.00 | 0.00 | 10 | 1006.2 |
| 20260508011702 | 33 | 225 | 6.4 | 12.9 | 0.00 | 0.00 | 0.00 | 11 | 1006.5 |
| 20260508011154 | 33 | 248 | 4.8 | 12.9 | 0.00 | 0.00 | 0.00 | 10 | 1006.5 |
| 20260508010659 | 34 | 135 | 3.2 | 11.3 | 0.00 | 0.00 | 0.00 | 10 | 1006.5 |
| 20260508010459 | 34 | 270 | 3.2 | 11.3 | 0.00 | 0.00 | 0.00 | 10 | 1006.5 |
| 20260508005646 | 34 | 248 | 3.2 | 11.3 | 0.00 | 0.00 | 0.00 | 11 | 1006.5 |
| 20260508005154 | 34 | 248 | 1.6 | 11.3 | 0.00 | 0.00 | 0.00 | 11 | 1006.5 |
| 20260508004507 | 35 | 270 | 0.0 | 6.4 | 0.00 | 0.00 | 0.00 | 10 | 1006.5 |
| 20260508004007 | 35 | 248 | 1.6 | 6.4 | 0.00 | 0.00 | 0.00 | 9 | 1006.5 |
| 20260508003424 | 35 | 270 | 1.6 | 6.4 | 0.00 | 0.00 | 0.00 | 11 | 1006.5 |
| 20260508002912 | 35 | 315 | 1.6 | 6.4 | 0.00 | 0.00 | 0.00 | 11 | 1006.5 |
| 20260508002632 | 35 | 180 | 0.0 | 4.8 | 0.00 | 0.00 | 0.00 | 10 | 1006.2 |
| 20260508001845 | 35 | 225 | 0.0 | 8.0 | 0.00 | 0.00 | 0.00 | 10 | 1006.5 |
| 20260508001345 | 35 | 225 | 1.6 | 8.0 | 0.00 | 0.00 | 0.00 | 10 | 1006.5 |
| 20260508000845 | 35 | 270 | 0.0 | 6.4 | 0.00 | 0.00 | 0.00 | 10 | 1006.2 |
| 20260508000343 | 35 | 338 | 1.6 | 8.0 | 0.00 | 0.00 | 0.00 | 10 | 1006.5 |
| 20260507235843 | 35 | 338 | 1.6 | 8.0 | 0.00 | 0.00 | 0.00 | 11 | 1006.5 |
| 20260507235615 | 35 | 180 | 1.6 | 8.0 | 0.00 | 0.00 | 0.00 | 10 | 1006.5 |
| 20260507234844 | 35 | 270 | 1.6 | 9.7 | 0.00 | 0.00 | 0.00 | 9 | 1006.5 |
| 20260507234344 | 35 | 158 | 1.6 | 8.0 | 0.00 | 0.00 | 0.00 | 10 | 1006.5 |
| 20260507234116 | 35 | 225 | 1.6 | 9.7 | 0.00 | 0.00 | 0.00 | 9 | 1006.5 |
| 20260507233617 | 34 | 180 | 1.6 | 9.7 | 0.00 | 0.00 | 0.00 | 10 | 1006.5 |
| 20260507232845 | 34 | 293 | 1.6 | 9.7 | 0.00 | 0.00 | 0.00 | 10 | 1006.5 |
| 20260507232615 | 34 | 270 | 1.6 | 11.3 | 0.00 | 0.00 | 0.00 | 11 | 1006.9 |
| 20260507232114 | 34 | 180 | 3.2 | 11.3 | 0.00 | 0.00 | 0.00 | 9 | 1006.9 |
| 20260507231343 | 34 | 158 | 1.6 | 8.0 | 0.00 | 0.00 | 0.00 | 9 | 1006.9 |
| 20260507230843 | 35 | 158 | 1.6 | 9.7 | 0.00 | 0.00 | 0.00 | 10 | 1006.5 |
| 20260507230343 | 35 | 248 | 1.6 | 9.7 | 0.00 | 0.00 | 0.00 | 10 | 1006.9 |
| 20260507225844 | 35 | 180 | 1.6 | 9.7 | 0.00 | 0.00 | 0.00 | 10 | 1006.9 |
| 20260507225614 | 35 | 203 | 1.6 | 11.3 | 0.00 | 0.00 | 0.00 | 9 | 1006.9 |
| 20260507224844 | 35 | 180 | 3.2 | 11.3 | 0.00 | 0.00 | 0.00 | 10 | 1006.9 |
| 20260507224344 | 35 | 203 | 3.2 | 11.3 | 0.00 | 0.00 | 0.00 | 9 | 1006.9 |
| 20260507224114 | 35 | 225 | 1.6 | 9.7 | 0.00 | 0.00 | 0.00 | 10 | 1007.3 |
| 20260507223343 | 35 | 203 | 1.6 | 6.4 | 0.00 | 0.00 | 0.00 | 11 | 1007.3 |
| 20260507222842 | 35 | 45 | 0.0 | 6.4 | 0.00 | 0.00 | 0.00 | 12 | 1007.3 |
| 20260507222342 | 35 | 68 | 0.0 | 6.4 | 0.00 | 0.00 | 0.00 | 12 | 1007.3 |
| 20260507221843 | 35 | 158 | 1.6 | 9.7 | 0.00 | 0.00 | 0.00 | 9 | 1007.3 |
| 20260507221343 | 35 | 135 | 1.6 | 9.7 | 0.00 | 0.00 | 0.00 | 10 | 1007.6 |
| 20260507221114 | 35 | 23 | 1.6 | 8.0 | 0.00 | 0.00 | 0.00 | 12 | 1008.0 |
| 20260507220343 | 35 | 23 | 1.6 | 11.3 | 0.00 | 0.00 | 0.00 | 12 | 1007.6 |
| 20260507215844 | 35 | 315 | 1.6 | 11.3 | 0.00 | 0.00 | 0.00 | 11 | 1008.0 |
| 20260507215333 | 35 | 225 | 1.6 | 11.3 | 0.00 | 0.00 | 0.00 | 11 | 1007.6 |
| 20260507214825 | 34 | 225 | 1.6 | 11.3 | 0.00 | 0.00 | 0.00 | 10 | 1008.0 |
| 20260507214323 | 34 | 180 | 1.6 | 12.9 | 0.00 | 0.00 | 0.00 | 11 | 1008.0 |
| 20260507213824 | 35 | 180 | 3.2 | 12.9 | 0.00 | 0.00 | 0.00 | 11 | 1008.0 |
| 20260507213323 | 35 | 180 | 1.6 | 9.7 | 0.00 | 0.00 | 0.00 | 12 | 1008.3 |
| 20260507212824 | 35 | 203 | 1.6 | 8.0 | 0.00 | 0.00 | 0.00 | 12 | 1008.3 |
| 20260507212325 | 35 | 203 | 1.6 | 8.0 | 0.00 | 0.00 | 0.00 | 12 | 1008.3 |
| 20260507211825 | 35 | 180 | 0.0 | 6.4 | 0.00 | 0.00 | 0.00 | 10 | 1008.7 |
| 20260507211325 | 35 | 45 | 0.0 | 6.4 | 0.00 | 0.00 | 0.00 | 11 | 1008.7 |
| 20260507210824 | 35 | 203 | 0.0 | 11.3 | 0.00 | 0.00 | 0.00 | 11 | 1008.7 |
| 20260507210323 | 35 | 225 | 3.2 | 11.3 | 0.00 | 0.00 | 0.00 | 10 | 1008.7 |
| 20260507205823 | 35 | 270 | 1.6 | 11.3 | 0.00 | 0.00 | 0.00 | 11 | 1009.0 |
| 20260507205328 | 35 | 315 | 1.6 | 11.3 | 0.00 | 0.00 | 0.00 | 12 | 1008.7 |
| 20260507204822 | 35 | 225 | 1.6 | 8.0 | 0.00 | 0.00 | 0.00 | 11 | 1009.0 |
| 20260507204323 | 35 | 45 | 0.0 | 8.0 | 0.00 | 0.00 | 0.00 | 12 | 1008.7 |
| 20260507203824 | 35 | 270 | 0.0 | 6.4 | 0.00 | 0.00 | 0.00 | 12 | 1009.0 |
| 20260507203324 | 35 | 68 | 1.6 | 6.4 | 0.00 | 0.00 | 0.00 | 12 | 1009.0 |
| 20260507202824 | 35 | 248 | 0.0 | 6.4 | 0.00 | 0.00 | 0.00 | 12 | 1009.0 |
| 20260507202324 | 35 | 158 | 1.6 | 6.4 | 0.00 | 0.00 | 0.00 | 12 | 1009.3 |
| 20260507201823 | 35 | 203 | 0.0 | 3.2 | 0.00 | 0.00 | 0.00 | 12 | 1009.3 |
| 20260507201323 | 35 | 293 | 0.0 | 3.2 | 0.00 | 0.00 | 0.00 | 12 | 1009.7 |
| 20260507200823 | 35 | 338 | 0.0 | 3.2 | 0.00 | 0.00 | 0.00 | 12 | 1009.7 |
| 20260507200324 | 35 | 180 | 0.0 | 8.0 | 0.00 | 0.00 | 0.00 | 12 | 1009.7 |
| 20260507195823 | 35 | 45 | 1.6 | 8.0 | 0.00 | 0.00 | 0.00 | 12 | 1009.7 |
| 20260507195325 | 34 | 270 | 1.6 | 9.7 | 0.00 | 0.00 | 0.00 | 12 | 1009.7 |
| 20260507194824 | 34 | 180 | 1.6 | 9.7 | 0.00 | 0.00 | 0.00 | 12 | 1009.7 |
| 20260507194326 | 34 | 338 | 0.0 | 6.4 | 0.00 | 0.00 | 0.00 | 15 | 1010.0 |
| 20260507193824 | 34 | 45 | 1.6 | 9.7 | 0.00 | 0.00 | 0.00 | 13 | 1010.0 |
| 20260507193324 | 33 | 45 | 1.6 | 9.7 | 0.00 | 0.00 | 0.00 | 13 | 1010.0 |
| 20260507192823 | 33 | 68 | 0.0 | 4.8 | 0.00 | 0.00 | 0.00 | 13 | 1010.0 |
| 20260507192324 | 33 | 225 | 0.0 | 6.4 | 0.00 | 0.00 | 0.00 | 12 | 1010.0 |
| 20260507191823 | 33 | 203 | 0.0 | 6.4 | 0.00 | 0.00 | 0.00 | 12 | 1010.0 |
| 20260507191323 | 33 | 203 | 1.6 | 8.0 | 0.00 | 0.00 | 0.00 | 12 | 1010.5 |
| 20260507190824 | 33 | 45 | 1.6 | 8.0 | 0.00 | 0.00 | 0.00 | 15 | 1010.5 |
| 20260507190325 | 33 | 338 | 0.0 | 8.0 | 0.00 | 0.00 | 0.00 | 12 | 1010.0 |
| 20260507185824 | 33 | 270 | 0.0 | 12.9 | 0.00 | 0.00 | 0.00 | 15 | 1010.8 |
| 20260507185556 | 32 | 203 | 1.6 | 12.9 | 0.00 | 0.00 | 0.00 | 13 | 1010.8 |
| 20260507185056 | 32 | 45 | 1.6 | 6.4 | 0.00 | 0.00 | 0.00 | 15 | 1010.8 |
| 20260507184323 | 32 | 0 | 0.0 | 4.8 | 0.00 | 0.00 | 0.00 | 13 | 1011.1 |
| 20260507184055 | 32 | 45 | 0.0 | 6.4 | 0.00 | 0.00 | 0.00 | 12 | 1011.1 |
| 20260507183323 | 32 | 135 | 1.6 | 6.4 | 0.00 | 0.00 | 0.00 | 12 | 1011.1 |
| 20260507182822 | 32 | 158 | 1.6 | 6.4 | 0.00 | 0.00 | 0.00 | 13 | 1011.1 |
| 20260507182324 | 32 | 248 | 1.6 | 6.4 | 0.00 | 0.00 | 0.00 | 12 | 1011.1 |
| 20260507182054 | 31 | 45 | 0.0 | 4.8 | 0.00 | 0.00 | 0.00 | 15 | 1011.5 |
| 20260507181554 | 31 | 90 | 0.0 | 4.8 | 0.00 | 0.00 | 0.00 | 15 | 1011.1 |
| 20260507180824 | 31 | 158 | 0.0 | 8.0 | 0.00 | 0.00 | 0.00 | 15 | 1011.5 |
| 20260507180324 | 31 | 248 | 1.6 | 8.0 | 0.00 | 0.00 | 0.00 | 15 | 1011.5 |
| 20260507175823 | 31 | 180 | 1.6 | 6.4 | 0.00 | 0.00 | 0.00 | 17 | 1011.5 |
| 20260507175553 | 30 | 135 | 0.0 | 3.2 | 0.00 | 0.00 | 0.00 | 17 | 1011.5 |
| 20260507174822 | 30 | 338 | 0.0 | 4.8 | 0.00 | 0.00 | 0.00 | 17 | 1011.8 |
| 20260507174322 | 30 | 270 | 0.0 | 6.4 | 0.00 | 0.00 | 0.00 | 19 | 1011.8 |
| 20260507173823 | 30 | 315 | 0.0 | 6.4 | 0.00 | 0.00 | 0.00 | 19 | 1011.8 |
| 20260507173323 | 30 | 0 | 1.6 | 6.4 | 0.00 | 0.00 | 0.00 | 19 | 1011.8 |
| 20260507172823 | 30 | 45 | 1.6 | 6.4 | 0.00 | 0.00 | 0.00 | 17 | 1011.8 |
| 20260507172554 | 30 | 45 | 0.0 | 4.8 | 0.00 | 0.00 | 0.00 | 19 | 1011.8 |
| 20260507171824 | 30 | 0 | 0.0 | 4.8 | 0.00 | 0.00 | 0.00 | 20 | 1012.1 |
| 20260507171328 | 30 | 0 | 0.0 | 6.4 | 0.00 | 0.00 | 0.00 | 20 | 1011.8 |
| 20260507170822 | 29 | 158 | 1.6 | 6.4 | 0.00 | 0.00 | 0.00 | 19 | 1011.8 |
| 20260507170323 | 29 | 113 | 1.6 | 6.4 | 0.00 | 0.00 | 0.00 | 19 | 1011.8 |
| 20260507165823 | 28 | 203 | 1.6 | 6.4 | 0.00 | 0.00 | 0.00 | 20 | 1012.1 |
| 20260507165553 | 28 | 315 | 0.0 | 4.8 | 0.00 | 0.00 | 0.00 | 20 | 1012.1 |
| 20260507164823 | 28 | 225 | 0.0 | 4.8 | 0.00 | 0.00 | 0.00 | 20 | 1012.1 |
| 20260507164323 | 28 | 248 | 1.6 | 8.0 | 0.00 | 0.00 | 0.00 | 22 | 1012.1 |
| 20260507164055 | 28 | 45 | 0.0 | 8.0 | 0.00 | 0.00 | 0.00 | 24 | 1012.1 |
| 20260507163323 | 27 | 68 | 0.0 | 4.8 | 0.00 | 0.00 | 0.00 | 25 | 1012.5 |
| 20260507162822 | 27 | 270 | 0.0 | 4.8 | 0.00 | 0.00 | 0.00 | 25 | 1012.1 |
| 20260507162322 | 27 | 23 | 0.0 | 4.8 | 0.00 | 0.00 | 0.00 | 25 | 1012.1 |
| 20260507161822 | 27 | 45 | 0.0 | 4.8 | 0.00 | 0.00 | 0.00 | 27 | 1012.5 |
| 20260507161324 | 26 | 158 | 0.0 | 4.8 | 0.00 | 0.00 | 0.00 | 27 | 1012.5 |
| 20260507160822 | 26 | 180 | 0.0 | 4.8 | 0.00 | 0.00 | 0.00 | 27 | 1012.5 |
| 20260507160324 | 26 | 0 | 0.0 | 3.2 | 0.00 | 0.00 | 0.00 | 27 | 1012.5 |
| 20260507155823 | 26 | 90 | 0.0 | 0.0 | 0.00 | 0.00 | 0.00 | 27 | 1012.5 |
| 20260507155324 | 26 | 135 | 0.0 | 0.0 | 0.00 | 0.00 | 0.00 | 27 | 1012.5 |
| 20260507154823 | 25 | 90 | 0.0 | 1.6 | 0.00 | 0.00 | 0.00 | 27 | 1012.5 |
| 20260507154324 | 25 | 158 | 0.0 | 1.6 | 0.00 | 0.00 | 0.00 | 29 | 1012.5 |
| 20260507153822 | 25 | 45 | 0.0 | 1.6 | 0.00 | 0.00 | 0.00 | 29 | 1012.5 |
| 20260507153323 | 25 | 45 | 0.0 | 3.2 | 0.00 | 0.00 | 0.00 | 29 | 1012.8 |
| 20260507152824 | 25 | 23 | 0.0 | 3.2 | 0.00 | 0.00 | 0.00 | 30 | 1012.5 |
| 20260507152322 | 25 | 68 | 0.0 | 1.6 | 0.00 | 0.00 | 0.00 | 30 | 1012.5 |
| 20260507151823 | 25 | 45 | 0.0 | 3.2 | 0.00 | 0.00 | 0.00 | 30 | 1012.8 |
| 20260507151305 | 25 | 23 | 0.0 | 3.2 | 0.00 | 0.00 | 0.00 | 30 | 1012.8 |
| 20260507150804 | 25 | 158 | 0.0 | 3.2 | 0.00 | 0.00 | 0.00 | 30 | 1012.5 |
| 20260507150305 | 24 | 45 | 0.0 | 3.2 | 0.00 | 0.00 | 0.00 | 31 | 1012.5 |
| 20260507145804 | 24 | 135 | 0.0 | 3.2 | 0.00 | 0.00 | 0.00 | 30 | 1012.5 |
| 20260507145306 | 23 | 270 | 0.0 | 3.2 | 0.00 | 0.00 | 0.00 | 30 | 1012.5 |
| 20260507144803 | 23 | 135 | 0.0 | 3.2 | 0.00 | 0.00 | 0.00 | 31 | 1012.5 |
| 20260507144304 | 23 | 203 | 0.0 | 1.6 | 0.00 | 0.00 | 0.00 | 34 | 1012.5 |
| 20260507143803 | 22 | 203 | 0.0 | 1.6 | 0.00 | 0.00 | 0.00 | 34 | 1012.5 |
| 20260507143304 | 22 | 180 | 0.0 | 1.6 | 0.00 | 0.00 | 0.00 | 34 | 1012.5 |
| 20260507142804 | 21 | 203 | 0.0 | 3.2 | 0.00 | 0.00 | 0.00 | 35 | 1012.1 |
| 20260507142306 | 21 | 68 | 0.0 | 3.2 | 0.00 | 0.00 | 0.00 | 35 | 1012.5 |
| 20260507141804 | 21 | 315 | 0.0 | 1.6 | 0.00 | 0.00 | 0.00 | 35 | 1012.1 |
| 20260507141304 | 20 | 338 | 0.0 | 1.6 | 0.00 | 0.00 | 0.00 | 37 | 1012.5 |
| 20260507140803 | 20 | 293 | 0.0 | 1.6 | 0.00 | 0.00 | 0.00 | 35 | 1012.1 |
| 20260507140303 | 20 | 0 | 0.0 | 1.6 | 0.00 | 0.00 | 0.00 | 37 | 1012.1 |
| 20260507135804 | 20 | 0 | 0.0 | 0.0 | 0.00 | 0.00 | 0.00 | 37 | 1012.1 |
| 20260507135306 | 20 | 338 | 0.0 | 0.0 | 0.00 | 0.00 | 0.00 | 37 | 1012.1 |
| 20260507134806 | 20 | 338 | 0.0 | 0.0 | 0.00 | 0.00 | 0.00 | 35 | 1012.1 |
| 20260507134305 | 19 | 68 | 0.0 | 0.0 | 0.00 | 0.00 | 0.00 | 37 | 1012.1 |
| 20260507133804 | 19 | 68 | 0.0 | 1.6 | 0.00 | 0.00 | 0.00 | 37 | 1011.8 |
| 20260507133304 | 19 | 68 | 0.0 | 3.2 | 0.00 | 0.00 | 0.00 | 35 | 1012.1 |
| 20260507132808 | 19 | 23 | 0.0 | 1.6 | 0.00 | 0.00 | 0.00 | 35 | 1012.1 |
| 20260507132804 | 19 | 45 | 0.0 | 3.2 | 0.00 | 0.00 | 0.00 | 35 | 1011.8 |
| 20260507131757 | 19 | 203 | 0.0 | 6.4 | 0.00 | 0.00 | 0.00 | 34 | 1011.8 |
| 20260507131244 | 18 | 0 | 0.0 | 8.0 | 0.00 | 0.00 | 0.00 | 35 | 1011.8 |
| 20260507130745 | 18 | 23 | 0.0 | 8.0 | 0.00 | 0.00 | 0.00 | 35 | 1011.8 |
| 20260507130244 | 18 | 23 | 0.0 | 6.4 | 0.00 | 0.00 | 0.00 | 35 | 1011.8 |
| 20260507125746 | 18 | 23 | 1.6 | 6.4 | 0.00 | 0.00 | 0.00 | 35 | 1011.5 |
| 20260507125245 | 18 | 23 | 0.0 | 4.8 | 0.00 | 0.00 | 0.00 | 35 | 1011.8 |
| 20260507124745 | 18 | 23 | 0.0 | 3.2 | 0.00 | 0.00 | 0.00 | 35 | 1011.8 |
| 20260507124246 | 18 | 0 | 0.0 | 4.8 | 0.00 | 0.00 | 0.00 | 35 | 1011.8 |
| 20260507123745 | 18 | 23 | 0.0 | 4.8 | 0.00 | 0.00 | 0.00 | 35 | 1011.8 |
| 20260507123245 | 18 | 338 | 0.0 | 3.2 | 0.00 | 0.00 | 0.00 | 35 | 1011.8 |
| 20260507122745 | 18 | 0 | 0.0 | 6.4 | 0.00 | 0.00 | 0.00 | 35 | 1011.8 |
| 20260507122245 | 18 | 45 | 1.6 | 6.4 | 0.00 | 0.00 | 0.00 | 35 | 1011.8 |
| 20260507121744 | 18 | 23 | 0.0 | 3.2 | 0.00 | 0.00 | 0.00 | 35 | 1011.8 |
| 20260507121245 | 18 | 23 | 0.0 | 1.6 | 0.00 | 0.00 | 0.00 | 35 | 1011.8 |
| 20260507120745 | 18 | 23 | 0.0 | 4.8 | 0.00 | 0.00 | 0.00 | 35 | 1011.8 |
| 20260507120516 | 18 | 45 | 0.0 | 4.8 | 0.00 | 0.00 | 0.00 | 35 | 1011.8 |
| 20260507115745 | 18 | 0 | 0.0 | 3.2 | 0.00 | 0.00 | 0.00 | 35 | 1011.8 |
| 20260507115245 | 18 | 45 | 0.0 | 3.2 | 0.00 | 0.00 | 0.00 | 35 | 1011.8 |
| 20260507114744 | 18 | 45 | 0.0 | 0.0 | 0.00 | 0.00 | 0.00 | 35 | 1011.8 |
| 20260507114248 | 18 | 45 | 0.0 | 1.6 | 0.00 | 0.00 | 0.00 | 35 | 1011.8 |
| 20260507114244 | 18 | 45 | 0.0 | 1.6 | 0.00 | 0.00 | 0.00 | 35 | 1011.8 |
| 20260507113244 | 18 | 45 | 0.0 | 3.2 | 0.00 | 0.00 | 0.00 | 35 | 1011.8 |
| 20260507112744 | 18 | 23 | 0.0 | 3.2 | 0.00 | 0.00 | 0.00 | 35 | 1011.8 |
| 20260507112245 | 18 | 45 | 0.0 | 4.8 | 0.00 | 0.00 | 0.00 | 35 | 1011.5 |
| 20260507111745 | 18 | 45 | 0.0 | 4.8 | 0.00 | 0.00 | 0.00 | 35 | 1011.8 |
| 20260507111515 | 18 | 45 | 0.0 | 3.2 | 0.00 | 0.00 | 0.00 | 37 | 1011.8 |
| 20260507110745 | 18 | 23 | 0.0 | 3.2 | 0.00 | 0.00 | 0.00 | 37 | 1011.8 |
| 20260507110245 | 18 | 68 | 0.0 | 0.0 | 0.00 | 0.00 | 0.00 | 37 | 1011.8 |
| 20260507105744 | 18 | 23 | 0.0 | 1.6 | 0.00 | 0.00 | 0.00 | 37 | 1011.8 |
| 20260507105244 | 18 | 45 | 0.0 | 3.2 | 0.00 | 0.00 | 0.00 | 37 | 1012.1 |
| 20260507104743 | 18 | 68 | 0.0 | 3.2 | 0.00 | 0.00 | 0.00 | 39 | 1011.8 |
| 20260507104244 | 18 | 68 | 0.0 | 1.6 | 0.00 | 0.00 | 0.00 | 37 | 1011.8 |
| 20260507103745 | 18 | 68 | 0.0 | 0.0 | 0.00 | 0.00 | 0.00 | 39 | 1011.8 |
| 20260507103246 | 18 | 90 | 0.0 | 0.0 | 0.00 | 0.00 | 0.00 | 37 | 1011.8 |
| 20260507102745 | 18 | 90 | 0.0 | 0.0 | 0.00 | 0.00 | 0.00 | 37 | 1011.8 |
| 20260507102245 | 19 | 90 | 0.0 | 0.0 | 0.00 | 0.00 | 0.00 | 40 | 1011.8 |
| 20260507101745 | 19 | 90 | 0.0 | 0.0 | 0.00 | 0.00 | 0.00 | 39 | 1011.8 |
| 20260507101244 | 19 | 45 | 0.0 | 0.0 | 0.00 | 0.00 | 0.00 | 39 | 1012.1 |
| 20260507100744 | 19 | 45 | 0.0 | 0.0 | 0.00 | 0.00 | 0.00 | 39 | 1012.1 |
| 20260507100244 | 19 | 45 | 0.0 | 0.0 | 0.00 | 0.00 | 0.00 | 37 | 1011.8 |
| 20260507095744 | 19 | 68 | 0.0 | 0.0 | 0.00 | 0.00 | 0.00 | 37 | 1011.8 |
| 20260507095245 | 19 | 45 | 0.0 | 0.0 | 0.00 | 0.00 | 0.00 | 37 | 1012.1 |
| 20260507094746 | 19 | 23 | 0.0 | 0.0 | 0.00 | 0.00 | 0.00 | 37 | 1012.1 |
| 20260507094245 | 19 | 23 | 0.0 | 0.0 | 0.00 | 0.00 | 0.00 | 37 | 1012.1 |
| 20260507093745 | 19 | 23 | 0.0 | 0.0 | 0.00 | 0.00 | 0.00 | 37 | 1012.1 |
| 20260507093516 | 19 | 68 | 0.0 | 0.0 | 0.00 | 0.00 | 0.00 | 37 | 1012.1 |
| 20260507092744 | 20 | 68 | 0.0 | 0.0 | 0.00 | 0.00 | 0.00 | 37 | 1012.5 |
| 20260507092244 | 20 | 68 | 0.0 | 0.0 | 0.00 | 0.00 | 0.00 | 37 | 1012.1 |
| 20260507091744 | 20 | 45 | 0.0 | 0.0 | 0.00 | 0.00 | 0.00 | 37 | 1012.1 |
| 20260507091244 | 20 | 45 | 0.0 | 0.0 | 0.00 | 0.00 | 0.00 | 37 | 1012.1 |
| 20260507090745 | 20 | 23 | 0.0 | 1.6 | 0.00 | 0.00 | 0.00 | 37 | 1012.5 |
| 20260507090245 | 20 | 23 | 0.0 | 3.2 | 0.00 | 0.00 | 0.00 | 37 | 1012.1 |
| 20260507090017 | 20 | 23 | 0.0 | 3.2 | 0.00 | 0.00 | 0.00 | 35 | 1012.1 |
| 20260507085245 | 20 | 23 | 0.0 | 3.2 | 0.00 | 0.00 | 0.00 | 35 | 1012.1 |
| 20260507084745 | 20 | 23 | 0.0 | 3.2 | 0.00 | 0.00 | 0.00 | 35 | 1012.1 |
| 20260507084244 | 20 | 23 | 0.0 | 3.2 | 0.00 | 0.00 | 0.00 | 37 | 1012.1 |
| 20260507083745 | 20 | 0 | 1.6 | 3.2 | 0.00 | 0.00 | 0.00 | 37 | 1012.5 |
| 20260507083515 | 20 | 338 | 0.0 | 3.2 | 0.00 | 0.00 | 0.00 | 37 | 1012.1 |
| 20260507083014 | 20 | 338 | 0.0 | 3.2 | 0.00 | 0.00 | 0.00 | 37 | 1012.1 |
| 20260507082227 | 20 | 45 | 0.0 | 3.2 | 0.00 | 0.00 | 0.00 | 37 | 1012.5 |
| 20260507081727 | 20 | 45 | 0.0 | 3.2 | 0.00 | 0.00 | 0.00 | 37 | 1012.5 |
| 20260507081226 | 20 | 293 | 0.0 | 0.0 | 0.00 | 0.00 | 0.00 | 37 | 1012.5 |
| 20260507080726 | 20 | 293 | 0.0 | 0.0 | 0.00 | 0.00 | 0.00 | 37 | 1012.5 |
| 20260507080226 | 20 | 293 | 0.0 | 0.0 | 0.00 | 0.00 | 0.00 | 37 | 1012.5 |
| 20260507075725 | 20 | 248 | 0.0 | 0.0 | 0.00 | 0.00 | 0.00 | 37 | 1012.5 |
| 20260507075459 | 20 | 113 | 0.0 | 0.0 | 0.00 | 0.00 | 0.00 | 37 | 1012.5 |
| 20260507074725 | 21 | 68 | 0.0 | 0.0 | 0.00 | 0.00 | 0.00 | 35 | 1012.5 |
| 20260507074457 | 21 | 68 | 0.0 | 0.0 | 0.00 | 0.00 | 0.00 | 35 | 1012.5 |
| 20260507073726 | 21 | 338 | 0.0 | 0.0 | 0.00 | 0.00 | 0.00 | 35 | 1012.5 |
| 20260507073226 | 21 | 68 | 0.0 | 0.0 | 0.00 | 0.00 | 0.00 | 35 | 1012.5 |
| 20260507072726 | 21 | 203 | 0.0 | 0.0 | 0.00 | 0.00 | 0.00 | 35 | 1012.5 |
| 20260507072226 | 21 | 203 | 0.0 | 0.0 | 0.00 | 0.00 | 0.00 | 35 | 1012.5 |
| 20260507071727 | 21 | 203 | 0.0 | 0.0 | 0.00 | 0.00 | 0.00 | 35 | 1012.5 |
| 20260507071224 | 21 | 180 | 0.0 | 0.0 | 0.00 | 0.00 | 0.00 | 35 | 1012.5 |
| 20260507070725 | 21 | 158 | 0.0 | 0.0 | 0.00 | 0.00 | 0.00 | 35 | 1012.5 |
| 20260507070225 | 21 | 68 | 0.0 | 0.0 | 0.00 | 0.00 | 0.00 | 34 | 1012.5 |
| 20260507065957 | 21 | 90 | 0.0 | 0.0 | 0.00 | 0.00 | 0.00 | 32 | 1012.5 |
| 20260507065455 | 21 | 23 | 0.0 | 0.0 | 0.00 | 0.00 | 0.00 | 32 | 1012.5 |
| 20260507064727 | 22 | 158 | 0.0 | 0.0 | 0.00 | 0.00 | 0.00 | 32 | 1012.5 |
| 20260507064226 | 22 | 270 | 0.0 | 0.0 | 0.00 | 0.00 | 0.00 | 32 | 1012.1 |
| 20260507063726 | 22 | 270 | 0.0 | 0.0 | 0.00 | 0.00 | 0.00 | 31 | 1012.1 |
| 20260507063226 | 22 | 270 | 0.0 | 0.0 | 0.00 | 0.00 | 0.00 | 31 | 1012.5 |
| 20260507062726 | 22 | 293 | 0.0 | 0.0 | 0.00 | 0.00 | 0.00 | 30 | 1012.1 |
| 20260507062455 | 22 | 293 | 0.0 | 0.0 | 0.00 | 0.00 | 0.00 | 30 | 1012.1 |
| 20260507062441 | 22 | 293 | 0.0 | 0.0 | 0.00 | 0.00 | 0.00 | 30 | 1012.1 |
| 20260507061457 | 22 | 293 | 0.0 | 0.0 | 0.00 | 0.00 | 0.00 | 30 | 1012.1 |
| 20260507060724 | 22 | 293 | 0.0 | 0.0 | 0.00 | 0.00 | 0.00 | 30 | 1012.1 |
| 20260507060226 | 22 | 270 | 0.0 | 0.0 | 0.00 | 0.00 | 0.00 | 30 | 1012.1 |
| 20260507055707 | 23 | 270 | 0.0 | 0.0 | 0.00 | 0.00 | 0.00 | 30 | 1012.5 |
| 20260507055208 | 23 | 270 | 0.0 | 0.0 | 0.00 | 0.00 | 0.00 | 30 | 1012.1 |
| 20260507054707 | 23 | 270 | 0.0 | 0.0 | 0.00 | 0.00 | 0.00 | 30 | 1012.1 |
| 20260507054207 | 23 | 270 | 0.0 | 0.0 | 0.00 | 0.00 | 0.00 | 30 | 1012.5 |
| 20260507053706 | 23 | 270 | 0.0 | 0.0 | 0.00 | 0.00 | 0.00 | 30 | 1012.1 |
| 20260507053206 | 23 | 270 | 0.0 | 0.0 | 0.00 | 0.00 | 0.00 | 30 | 1012.1 |
| 20260507052707 | 23 | 270 | 0.0 | 0.0 | 0.00 | 0.00 | 0.00 | 30 | 1012.1 |
| 20260507052206 | 23 | 270 | 0.0 | 0.0 | 0.00 | 0.00 | 0.00 | 30 | 1012.1 |
| 20260507051707 | 23 | 270 | 0.0 | 0.0 | 0.00 | 0.00 | 0.00 | 30 | 1012.1 |
| 20260507051208 | 23 | 270 | 0.0 | 0.0 | 0.00 | 0.00 | 0.00 | 30 | 1012.1 |
| 20260507050708 | 23 | 270 | 0.0 | 0.0 | 0.00 | 0.00 | 0.00 | 30 | 1012.1 |
| 20260507050438 | 23 | 270 | 0.0 | 0.0 | 0.00 | 0.00 | 0.00 | 29 | 1012.1 |
| 20260507045939 | 24 | 270 | 0.0 | 0.0 | 0.00 | 0.00 | 0.00 | 29 | 1012.1 |
| 20260507045206 | 24 | 270 | 0.0 | 0.0 | 0.00 | 0.00 | 0.00 | 29 | 1012.1 |
| 20260507044706 | 24 | 270 | 0.0 | 0.0 | 0.00 | 0.00 | 0.00 | 29 | 1012.1 |
| 20260507044437 | 24 | 270 | 0.0 | 0.0 | 0.00 | 0.00 | 0.00 | 27 | 1012.1 |
| 20260507043939 | 24 | 270 | 0.0 | 0.0 | 0.00 | 0.00 | 0.00 | 27 | 1012.1 |
| 20260507043206 | 24 | 270 | 0.0 | 0.0 | 0.00 | 0.00 | 0.00 | 25 | 1012.1 |
| 20260507042707 | 24 | 225 | 0.0 | 0.0 | 0.00 | 0.00 | 0.00 | 27 | 1011.8 |
| 20260507042207 | 25 | 225 | 0.0 | 0.0 | 0.00 | 0.00 | 0.00 | 25 | 1011.8 |
| 20260507041708 | 25 | 225 | 0.0 | 0.0 | 0.00 | 0.00 | 0.00 | 27 | 1012.1 |
| 20260507041154 | 25 | 225 | 0.0 | 0.0 | 0.00 | 0.00 | 0.00 | 27 | 1011.8 |
| 20260507040649 | 25 | 270 | 0.0 | 0.0 | 0.00 | 0.00 | 0.00 | 25 | 1011.8 |
| 20260507040147 | 25 | 248 | 0.0 | 0.0 | 0.00 | 0.00 | 0.00 | 25 | 1011.8 |
| 20260507035647 | 25 | 248 | 0.0 | 0.0 | 0.00 | 0.00 | 0.00 | 25 | 1011.5 |
| 20260507035148 | 25 | 248 | 0.0 | 0.0 | 0.00 | 0.00 | 0.00 | 25 | 1011.5 |
| 20260507034647 | 25 | 248 | 0.0 | 0.0 | 0.00 | 0.00 | 0.00 | 25 | 1011.8 |
| 20260507034148 | 25 | 248 | 0.0 | 0.0 | 0.00 | 0.00 | 0.00 | 25 | 1011.5 |
| 20260507033649 | 26 | 203 | 0.0 | 0.0 | 0.00 | 0.00 | 0.00 | 24 | 1011.5 |
| 20260507033148 | 26 | 180 | 0.0 | 1.6 | 0.00 | 0.00 | 0.00 | 24 | 1011.5 |
| 20260507032648 | 26 | 180 | 0.0 | 1.6 | 0.00 | 0.00 | 0.00 | 22 | 1011.5 |
| 20260507032148 | 26 | 158 | 0.0 | 1.6 | 0.00 | 0.00 | 0.00 | 22 | 1011.1 |
| 20260507031647 | 26 | 180 | 0.0 | 1.6 | 0.00 | 0.00 | 0.00 | 22 | 1011.1 |